Time+07,TemperatureF,Dew PointF,Humidity,Sea Level PressureIn,VisibilityMPH,Wind Direction,Wind SpeedMPH,Gust SpeedMPH,PrecipitationIn,Events,Conditions,WindDirDegrees,DateUTC
12:00 AM,68.0,64.4,88,29.95,1.9,Calm,Calm,-,N/A,,Mist,0,2013-01-19 17:00:00
12:30 AM,68.0,64.4,88,29.95,1.9,Calm,Calm,-,N/A,,Mist,0,2013-01-19 17:30:00
1:00 AM,68.0,64.4,88,29.95,1.9,Calm,Calm,-,N/A,,Mist,0,2013-01-19 18:00:00
1:30 AM,68.0,64.4,88,29.95,1.9,Calm,Calm,-,N/A,,Mist,0,2013-01-19 18:30:00
2:00 AM,68.0,64.4,88,29.92,1.9,Calm,Calm,-,N/A,,Mist,0,2013-01-19 19:00:00
2:30 AM,68.0,62.6,83,29.92,1.9,Calm,Calm,-,N/A,,Mist,0,2013-01-19 19:30:00
3:00 AM,68.0,60.8,78,29.92,1.2,Calm,Calm,-,N/A,,Mist,0,2013-01-19 20:00:00
3:30 AM,68.0,62.6,83,29.92,1.2,Calm,Calm,-,N/A,,Mist,0,2013-01-19 20:30:00
4:00 AM,66.2,60.8,83,29.92,1.2,Calm,Calm,-,N/A,,Mist,0,2013-01-19 21:00:00
5:00 AM,66.2,60.8,83,29.92,1.2,Calm,Calm,-,N/A,,Mist,0,2013-01-19 22:00:00
5:30 AM,66.2,59.0,78,29.92,1.2,Calm,Calm,-,N/A,,Mist,0,2013-01-19 22:30:00
6:00 AM,66.2,59.0,78,29.92,1.2,Calm,Calm,-,N/A,,Mist,0,2013-01-19 23:00:00
6:30 AM,66.2,59.0,78,29.95,1.2,Calm,Calm,-,N/A,,Mist,0,2013-01-19 23:30:00
7:00 AM,66.2,59.0,78,29.95,1.2,Calm,Calm,-,N/A,,Mist,0,2013-01-20 00:00:00
7:30 AM,68.0,59.0,73,29.95,1.2,Calm,Calm,-,N/A,,Mist,0,2013-01-20 00:30:00
8:00 AM,69.8,59.0,68,29.98,1.2,Calm,Calm,-,N/A,,Mist,0,2013-01-20 01:00:00
8:30 AM,73.4,60.8,65,29.98,1.9,NE,3.5,-,N/A,,Haze,40,2013-01-20 01:30:00
9:00 AM,77.0,62.6,61,29.98,1.9,North,3.5,-,N/A,,Haze,10,2013-01-20 02:00:00
10:00 AM,82.4,55.4,39,29.98,2.5,East,4.6,-,N/A,,Haze,90,2013-01-20 03:00:00
11:00 AM,86.0,53.6,33,29.98,2.5,NNE,3.5,-,N/A,,Haze,30,2013-01-20 04:00:00
12:00 PM,86.0,57.2,37,29.95,2.5,South,6.9,-,N/A,,Haze,190,2013-01-20 05:00:00
12:30 PM,87.8,55.4,33,29.95,2.5,SSW,6.9,-,N/A,,Haze,200,2013-01-20 05:30:00
1:00 PM,87.8,53.6,31,29.92,2.5,South,6.9,-,N/A,,Haze,190,2013-01-20 06:00:00
1:30 PM,86.0,59.0,40,29.89,2.5,WSW,6.9,-,N/A,,Haze,240,2013-01-20 06:30:00
2:00 PM,87.8,57.2,35,29.89,2.5,SSW,6.9,-,N/A,,Haze,210,2013-01-20 07:00:00
2:30 PM,87.8,57.2,35,29.89,2.5,SW,6.9,-,N/A,,Haze,230,2013-01-20 07:30:00
3:00 PM,86.0,55.4,35,29.86,2.5,SW,4.6,-,N/A,,Haze,220,2013-01-20 08:00:00
3:30 PM,84.2,59.0,42,29.86,2.5,SSW,9.2,-,N/A,,Haze,210,2013-01-20 08:30:00
4:30 PM,84.2,62.6,48,29.89,2.5,SSW,6.9,-,N/A,,Haze,210,2013-01-20 09:30:00
5:00 PM,84.2,62.6,48,29.89,2.5,SSW,9.2,-,N/A,,Haze,210,2013-01-20 10:00:00
5:30 PM,82.4,62.6,51,29.89,2.5,SSW,4.6,-,N/A,,Haze,210,2013-01-20 10:30:00
6:00 PM,80.6,64.4,58,29.89,2.5,West,3.5,-,N/A,,Haze,280,2013-01-20 11:00:00
6:30 PM,78.8,64.4,61,29.89,2.5,NW,3.5,-,N/A,,Haze,310,2013-01-20 11:30:00
7:00 PM,77.0,64.4,65,29.92,2.5,NNW,4.6,-,N/A,,Haze,340,2013-01-20 12:00:00
7:30 PM,77.0,64.4,65,29.92,2.5,NNE,2.3,-,N/A,,Mist,30,2013-01-20 12:30:00
8:00 PM,75.2,64.4,69,29.92,2.5,ENE,3.5,-,N/A,,Haze,60,2013-01-20 13:00:00
8:30 PM,73.4,64.4,73,29.95,2.5,ENE,2.3,-,N/A,,Mist,60,2013-01-20 13:30:00
9:00 PM,73.4,64.4,73,29.95,1.9,NE,3.5,-,N/A,,Mist,50,2013-01-20 14:00:00
9:30 PM,73.4,64.4,73,29.95,1.9,NNE,2.3,-,N/A,,Mist,30,2013-01-20 14:30:00
10:00 PM,71.6,64.4,78,29.95,1.9,NNE,2.3,-,N/A,,Mist,20,2013-01-20 15:00:00
10:30 PM,71.6,66.2,83,29.95,1.9,North,2.3,-,N/A,,Mist,10,2013-01-20 15:30:00
11:00 PM,71.6,66.2,83,29.95,1.9,NNE,2.3,-,N/A,,Mist,20,2013-01-20 16:00:00
11:30 PM,71.6,66.2,83,29.95,1.9,North,2.3,-,N/A,,Mist,10,2013-01-20 16:30:00